Find Starlink 11267

NORAD ID: 60994 Int'l Des: 2024-158 Owner: SPXS Country: US Constellation: starlink operational
LEOCIRCULAR

实时位置

正在加载3D地球...

关于 Starlink 11267

正在加载描述...

即将过境

Passes for default location (London). Set your location on the main map for personalized predictions.

高度历史

Loading altitude history...

两行轨道根数

1 60994U 24158E 26127.03037160 .00001426 00000-0 16619-4 0 9996
2 60994 53.1584 353.9652 0001281 104.2724 255.8436 15.69722635 96757
Epoch: May 7, 2026 • Age: 17 hours

当前状态

高度 364.1 km
速度 7.69 km/s
星下点 -14.60°S, 148.13°W
发射日期 Sep 5, 2024
运行时间 1.6 years
类型 internet

技术详情

分类 Payload
质量 960.00 kg
干质量 910.00 kg
总质量 960.00 kg
长度 0.30 m
直径 4.10 m
跨度 29.00 m
形状 Box + pan
制造商 SPXS
平台类型 Starlink V2MD
阶段状态 In Orbit
所有者/国家 SPXS/US

Most Searched